This is the latest recevied weather packets stored in our database for station/object DB0TBG. If no packets are shown the sender has not sent any weather packets the latest 10 day(s).
| Time | Temp. | Humidity | Pressure | Rain* | Wind** | Luminosity | Snow |
|---|---|---|---|---|---|---|---|
| 1777720828 | 27.22° C | 16% | 978 hPa | 0 mm | 0 m/s | - | - |
| 1777720219 | 26.67° C | 19% | 978 hPa | 0 mm | 0 m/s | - | - |
| 1777719620 | 26.11° C | 20% | 978 hPa | 0 mm | 0 m/s | - | - |
| 1777719018 | 25.56° C | 17% | 978 hPa | 0 mm | 0 m/s | - | - |
| 1777718419 | 25.56° C | 20% | 978 hPa | 0 mm | 0 m/s | - | - |
| 1777717819 | 25° C | 21% | 978 hPa | 0 mm | 0 m/s | - | - |
| 1777717215 | 25° C | 21% | 979 hPa | 0 mm | 0 m/s | - | - |
| 1777716616 | 24.44° C | 23% | 979 hPa | 0 mm | 0 m/s | - | - |
| 1777716015 | 23.89° C | 22% | 979 hPa | 0 mm | 0 m/s | - | - |
| 1777715404 | 23.33° C | 22% | 979 hPa | 0 mm | 0 m/s | - | - |
| 1777714794 | 23.33° C | 24% | 979 hPa | 0 mm | 0 m/s | - | - |
| 1777714195 | 22.78° C | 25% | 979 hPa | 0 mm | 0 m/s | - | - |
| 1777713572 | 22.22° C | 25% | 979 hPa | 0 mm | 0 m/s | - | - |
| 1777712959 | 21.67° C | 27% | 979 hPa | 0 mm | 0 m/s | - | - |
| 1777712355 | 21.11° C | 26% | 979 hPa | 0 mm | 0 m/s | - | - |
| 1777711746 | 21.11° C | 29% | 980 hPa | 0 mm | 0 m/s | - | - |
| 1777710514 | 20° C | 32% | 979 hPa | 0 mm | 0 m/s | - | - |
| 1777709906 | 19.44° C | 33% | 980 hPa | 0 mm | 0 m/s | - | - |
| 1777709307 | 18.89° C | 33% | 980 hPa | 0 mm | 0 m/s | - | - |
| 1777708708 | 18.33° C | 34% | 980 hPa | 0 mm | 0 m/s | - | - |
| 1777708106 | 17.78° C | 34% | 980 hPa | 0 mm | 0 m/s | - | - |
| 1777707508 | 17.22° C | 35% | 980 hPa | 0 mm | 0 m/s | - | - |
| 1777705708 | 16.11° C | 36% | 980 hPa | 0 mm | 0 m/s | - | - |
| 1777705103 | 15.56° C | 36% | 980 hPa | 0 mm | 0 m/s | - | - |
| 1777704485 | 15.56° C | 37% | 980 hPa | 0 mm | 0 m/s | - | - |
* Rain latest hour (hover to see other rain measurements)
** Current wind speed in m/s (hover to see current wind gust speed)